Weather History for Pine Ridge, SD

Change the Weather History Date:

Sunday, February 16, 2014

  Actual Average Record
Temperature  
Mean Temperature 47 °F 27 °F  
Max Temperature 63 °F 40 °F 66 °F (2011)
Min Temperature 31 °F 13 °F -2 °F (2006)
Degree Days  
Heating Degree Days 18 38  
Month to date heating degree days 804 636  
Since 1 July heating degree days 4989 4913  
Cooling Degree Days 0 0  
Month to date cooling degree days 0 0  
Year to date cooling degree days 0 0  
Moisture  
Dew Point 31 °F    
Average Humidity 61    
Maximum Humidity 89    
Minimum Humidity 32    
Precipitation  
Precipitation T in 0.01 in 0.01 in (2000)
Month to date precipitation 0.12 0.27  
Year to date precipitation 0.21 0.59  
Sea Level Pressure  
Sea Level Pressure 29.71 in    
Wind  
Wind Speed 14 mph (SW)    
Max Wind Speed 30 mph    
Max Gust Speed 47 mph    
Visibility 10 miles    
Events Rain , Snow    
T = Trace of Precipitation, MM = Missing Value Source: NWS Daily Summary

Daily Weather History Graph

Daily Weather History Graph

Search for Another Location

Airport:

Trip Planner

Search our weather history database for the weather conditions in past years. The results will help you decide how hot, cold, wet, or windy it might be!

Date:

Astronomy

Feb. 16, 2014 Rise Set
Actual Time 6:46 AM MST 5:22 PM MST
Civil Twilight 6:17 AM MST 5:51 PM MST
Nautical Twilight 5:43 AM MST 6:25 PM MST
Astronomical Twilight 5:11 AM MST 6:57 PM MST
Moon 7:26 PM MST (2/16) 7:13 AM MST (2/16)
Length of Visible Light 11h 34m
Length of Day
10h 36m
Full, 97% of the Moon is Illuminated
Feb 16
Full
Feb 22
Last Quarter
Mar 1
New
Mar 8
First Quarter
Mar 16
Full

Hourly Weather History & Observations

Time (MST) Temp. Windchill Dew Point Humidity Pressure Visibility Wind Dir Wind Speed Gust Speed Precip Events Conditions
12:52 AM 33.1 °F - 25.0 °F 72% 29.97 in 10.0 mi Calm Calm - N/A   Clear
1:52 AM 34.0 °F 28.0 °F 26.1 °F 73% 29.91 in 10.0 mi SSE 6.9 mph - N/A   Clear
2:52 AM 33.1 °F 26.9 °F 26.1 °F 75% 29.86 in 10.0 mi SE 6.9 mph - N/A   Clear
3:52 AM 36.0 °F 26.0 °F 27.0 °F 70% 29.81 in 10.0 mi South 17.3 mph 25.3 mph N/A   Clear
4:52 AM 37.0 °F 28.1 °F 28.0 °F 70% 29.78 in 10.0 mi South 15.0 mph 21.9 mph N/A   Partly Cloudy
5:52 AM 37.9 °F 29.6 °F 28.0 °F 68% 29.77 in 10.0 mi SSW 13.8 mph 25.3 mph N/A   Clear
6:52 AM 39.0 °F 28.8 °F 28.0 °F 65% 29.73 in 10.0 mi South 21.9 mph 28.8 mph N/A   Clear
7:52 AM 39.0 °F 29.9 °F 28.0 °F 65% 29.74 in 10.0 mi SSW 17.3 mph 24.2 mph N/A   Clear
8:52 AM 39.9 °F 32.5 °F 30.0 °F 68% 29.73 in 10.0 mi SSW 12.7 mph 20.7 mph N/A   Clear
9:52 AM 44.1 °F 37.1 °F 32.0 °F 63% 29.68 in 10.0 mi South 15.0 mph 23.0 mph N/A   Clear
10:52 AM 46.0 °F 39.3 °F 34.0 °F 63% 29.65 in 10.0 mi SSW 16.1 mph 25.3 mph N/A   Clear
11:52 AM 46.0 °F 38.3 °F 34.0 °F 63% 29.60 in 10.0 mi South 20.7 mph 29.9 mph N/A   Clear
12:52 PM 52.0 °F - 35.1 °F 53% 29.55 in 10.0 mi South 18.4 mph - N/A   Clear
1:52 PM 61.0 °F - 36.0 °F 39% 29.51 in 10.0 mi SW 15.0 mph 24.2 mph N/A   Clear
2:52 PM 62.1 °F - 32.0 °F 32% 29.51 in 10.0 mi SW 18.4 mph 27.6 mph N/A   Clear
3:52 PM 57.0 °F - 34.0 °F 42% 29.52 in 10.0 mi WSW 12.7 mph 21.9 mph N/A   Clear
4:52 PM 55.9 °F - 34.0 °F 44% 29.54 in 10.0 mi West 9.2 mph - N/A   Clear
5:52 PM 48.9 °F - 35.1 °F 59% 29.56 in 10.0 mi Variable 4.6 mph - 0.00 in Rain Light Rain
6:52 PM 53.1 °F - 34.0 °F 48% 29.60 in 10.0 mi WSW 17.3 mph 24.2 mph 0.00 in   Overcast
7:52 PM 50.0 °F - 34.0 °F 54% 29.63 in 10.0 mi West 18.4 mph 27.6 mph N/A   Scattered Clouds
8:08 PM 44.6 °F 35.9 °F 33.8 °F 66% 29.66 in 10.0 mi North 23.0 mph 36.8 mph N/A   Mostly Cloudy
8:17 PM 42.8 °F 33.1 °F 33.8 °F 70% 29.67 in 10.0 mi North 25.3 mph 35.7 mph N/A   Overcast
8:52 PM 37.9 °F 26.6 °F 30.9 °F 76% 29.79 in 10.0 mi North 25.3 mph 36.8 mph N/A   Overcast
9:36 PM 35.6 °F 25.9 °F 32.0 °F 87% 29.78 in 10.0 mi North 16.1 mph 25.3 mph 0.00 in   Overcast
9:52 PM 35.1 °F 24.5 °F 32.0 °F 89% 29.84 in 10.0 mi North 18.4 mph 31.1 mph 0.00 in Snow Light Snow
10:11 PM 35.6 °F 25.9 °F 32.0 °F 87% 29.82 in 9.0 mi North 16.1 mph 28.8 mph 0.00 in Snow Light Snow
10:52 PM 35.1 °F 29.3 °F 30.9 °F 85% 29.87 in 10.0 mi North 6.9 mph 16.1 mph 0.00 in   Overcast
11:52 PM 34.0 °F 24.2 °F 30.9 °F 89% 29.93 in 10.0 mi WSW 15.0 mph - N/A   Overcast